Tracking 28052 objects as of 25-Sep-2023
HD Live streaming from Space Station
objects crossing your sky now

COSMOS 1275 DEB

Track COSMOS 1275 DEB now!
10-day predictions


NORAD ID: 42191
Int'l Code: 1981-053TF
Perigee: 858.3 km
Apogee: 920.4 km
Inclination: 82.8 °
Period: 102.6 minutes
Semi major axis: 7260 km
RCS: Unknown
Launch date: June 4, 1981
Source: Commonwealth of Independent States (former USSR) (CIS)
Launch site: PLESETSK MISSILE AND SPACE COMPLEX (PKMTR)

Note: This is SATELLITE DEBRIS
Your satellite tracking list
Your tracking list is empty




NASA's NSSDC Master Catalog

Two Line Element Set (TLE):
1 42191U 81053TF  23266.52528831  .00003495  00000-0  22103-2 0  9998
2 42191  82.8263 199.5467 0042799  17.8766 342.3899 14.03348595502855
Source of the keplerian elements: AFSPC